#timestamp,LO_Frequency,Hit,StdDev 
1586667615.8,286047004.6,Y
1586667635.7,286047001.2,P
1586667655.5,286047000.3,N
1586667675.4,286047004.1,N
1586667695.2,286047003.6,N
1586667715.0,286047003.0,N
1586667715.9,286047003.0,N
1586667735.8,286047000.1,N
1586667755.6,286047002.6,N
1586667775.4,286046999.3,N
1586667795.3,286046997.1,N
1586667815.1,286047001.1,N
1586667835.9,286046999.7,N
1586667855.7,286047000.4,N
1586667875.5,286047001.2,N
1586667895.4,286046998.7,N
1586667915.2,286046996.8,N
1586667935.0,286046999.2,N
1586667936.0,286046999.2,N
1586667955.8,286046999.2,N
1586667975.6,286046998.2,N
1586667995.5,286047000.0,N
1586668015.3,286047001.7,N
1586668035.1,286047004.2,N
1586668055.9,286047003.9,N
1586668075.7,286047002.0,N
1586668095.5,286046998.6,N
1586668115.4,286046998.5,N
1586668135.2,286047000.4,N
1586668155.1,286046999.7,N
1586668156.0,286046999.7,N
1586668175.8,286047001.9,N
1586668195.6,286047001.0,N
1586668215.5,286047001.0,N
1586668235.3,286046998.7,N
1586668255.2,286046999.6,N
1586668275.9,286046997.4,N
1586668295.7,286046996.2,N
1586668315.6,286046997.5,N
1586668335.4,286046995.9,N
1586668355.2,286046995.8,N
1586668375.1,286046997.8,N
1586668376.0,286046997.8,N
1586668395.8,286046994.9,N
1586668415.7,286046993.3,Y
1586668435.5,286046995.1,P
1586668455.3,286046999.6,N
1586668475.2,286046999.1,N
1586668495.0,286046998.4,N
1586668495.9,286046998.4,N
1586668515.7,286046999.3,N
1586668535.6,286046998.6,N
1586668555.4,286046995.3,Y
1586668575.3,286047002.4,P
1586668595.1,286047002.2,N
1586668596.0,286047002.2,N
1586668615.8,286047003.2,N
1586668635.7,286047007.4,Y
1586668655.5,286047001.3,P
1586668675.4,286047002.2,P
1586668695.2,286046998.3,P
1586668715.0,286046996.1,N
1586668715.9,286046996.1,N
1586668735.8,286046994.8,N
1586668755.6,286046991.7,N
1586668775.4,286046994.4,N
1586668795.3,286046991.9,N
1586668815.1,286046994.8,N
1586668835.9,286046995.1,N
1586668855.7,286046995.0,N
1586668875.5,286046996.8,N
1586668895.4,286046998.8,N
1586668915.2,286046999.9,N
1586668935.0,286046999.4,N
1586668935.9,286046999.4,N
1586668955.8,286046995.4,N
1586668975.6,286046996.4,N
1586668995.5,286046997.9,N
1586669015.3,286047001.1,N
1586669035.1,286047000.5,N
1586669055.9,286047000.5,N
1586669075.7,286047000.8,N
1586669095.5,286046999.3,N
1586669115.4,286046998.7,N
1586669135.2,286047000.0,N
1586669155.1,286047000.6,N
1586669156.0,286047000.6,N
1586669175.8,286046996.5,N
1586669195.6,286047000.9,N
1586669215.5,286047001.4,N
1586669235.3,286046999.8,N
1586669255.1,286047000.6,N
1586669275.9,286046998.5,N
1586669295.7,286046999.6,N
1586669315.6,286046993.8,N
1586669335.4,286046992.9,N
1586669355.2,286046990.0,Y
1586669375.1,286046987.2,P
1586669376.0,286046987.2,N
1586669395.8,286046988.4,N
1586669415.7,286046988.0,N
1586669435.5,286046987.2,Y
1586669455.3,286046998.4,P
1586669475.2,286046999.2,N
1586669495.1,286046997.8,N
1586669496.0,286046997.8,N
1586669515.8,286046996.0,N
1586669535.7,286046999.6,N
1586669555.5,286047001.1,N
1586669575.4,286047004.1,N
1586669595.2,286047006.9,N
1586669615.0,286047009.8,N
1586669615.9,286047009.8,N
1586669635.8,286047013.1,N
1586669655.6,286047019.7,Y
1586669675.4,286047017.6,P
1586669695.3,286047013.2,N
1586669715.1,286047006.2,N
1586669735.9,286046999.7,N
1586669755.7,286046993.9,N
1586669775.5,286046987.5,N
1586669795.4,286046980.8,N
1586669815.2,286046976.4,N
1586669835.0,286046972.7,N
1586669835.9,286046972.7,N
1586669855.8,286046973.8,N
1586669875.6,286046971.9,N
1586669895.5,286046972.1,N
1586669915.3,286046971.7,N
1586669935.2,286046970.5,N
1586669955.0,286046968.4,N
1586669955.9,286046968.4,N
1586669975.7,286046970.2,N
1586669995.6,286046970.3,N
1586670015.4,286046970.3,N
1586670035.3,286046966.6,N
1586670055.1,286046966.8,N
1586670075.8,286046963.7,N
1586670095.7,286046965.9,N
1586670115.5,286046961.4,N
1586670135.4,286046965.3,N
1586670155.2,286046963.1,N
1586670175.0,286046963.2,N
1586670175.9,286046963.2,N
1586670195.8,286046964.0,N
1586670215.6,286046961.5,N
1586670235.5,286046961.7,N
1586670255.3,286046960.3,Y
1586670275.1,286046983.9,P
1586670295.9,286046980.9,P
1586670315.7,286046983.3,P
1586670335.5,286046978.9,Y
1586670355.4,286047004.2,P
1586670375.2,286047004.3,N
1586670395.1,286047003.4,N
1586670396.0,286047003.4,N
1586670415.8,286047007.4,N
1586670435.6,286047004.7,N
1586670455.5,286047005.7,N
1586670475.3,286047004.4,N
1586670495.2,286047002.2,N
1586670515.9,286047001.9,N
1586670535.7,286047005.7,N
1586670555.6,286047004.5,N
1586670575.4,286047005.0,N
1586670595.2,286047010.2,N
1586670615.1,286047012.0,N
1586670616.0,286047012.0,N
1586670635.8,286047011.4,N
1586670655.7,286047014.9,N
1586670675.5,286047012.8,N
1586670695.3,286047016.4,N
1586670715.2,286047017.9,N
1586670735.9,286047020.5,N
1586670755.7,286047026.2,Y
1586670775.6,286047022.0,P
1586670795.4,286047020.1,N
1586670815.3,286047021.4,P
1586670835.1,286047024.4,Y
1586670836.0,286047024.4,P
1586670855.8,286047009.2,N
1586670875.7,286047015.0,N
1586670895.5,286047017.0,Y
1586670915.3,286047001.2,P
1586670935.2,286047000.4,N
1586670955.0,286047002.1,N
1586670955.9,286047002.1,N
1586670975.8,286047002.8,N
1586670995.6,286046998.1,N
1586671015.4,286046998.4,N
1586671035.3,286046995.4,N
1586671055.1,286046994.4,N
1586671075.8,286046993.8,N
1586671095.7,286046994.4,N
1586671115.5,286046991.7,N
1586671135.4,286046991.4,N
1586671155.2,286046985.6,N
1586671175.1,286046985.0,N
1586671176.0,286046985.0,N
1586671195.8,286046984.0,N
